Preview of NWS' New Version of Forecast
This preview is not operational and should not be used for support decisions.

Regional Weather Roundup (RWR)

Issued by National Weather Service (NWS)

                            
000
ASUS43 KTOP 160359
RWRKS 

WEATHER ROUNDUP FOR KANSAS
NATIONAL WEATHER SERVICE GOODLAND KS
1100 PM CDT MON JUL 15 2019

NOTE:  "FAIR" INDICATES FEW OR NO CLOUDS BELOW 12,000 FEET WITH NO
SIGNIFICANT WEATHER AND/OR OBSTRUCTIONS TO VISIBILITY.

KSZ001>006-013>018-027>032-041>047-160500-
NORTHWEST KANSAS
  
CITY           SKY/WX    TMP DP  RH WIND       PRES   REMARKS
GOODLAND       CLOUDY    75  60  59 W29G47    30.04R                  
HAYS           CLEAR     78  68  71 SE8       29.93R                  
HILL CITY      CLEAR     82  65  56 SE6       29.92R                  
RUSSELL        CLEAR     79  66  64 SE13      29.91R                  
$$

KSZ061>065-074>080-084>089-160500-
SOUTHWEST KANSAS
  
CITY           SKY/WX    TMP DP  RH WIND       PRES   REMARKS
DODGE CITY     CLEAR     77  68  73 SE9       29.95R                  
GARDEN CITY    CLEAR     76  66  71 SE10      29.96R                  
GREAT BEND     CLEAR     77  69  76 SE7       29.94R                  
LIBERAL        CLEAR     77  65  66 SE8       29.96R                  
$$

KSZ066>073-081>083-090>101-160500-
SOUTHEAST KANSAS
  
CITY           SKY/WX    TMP DP  RH WIND       PRES   REMARKS
CHANUTE        CLEAR     74  68  81 CALM      29.93R                  
COFFEYVILLE    CLOUDY    77  71  82 N3        29.89R                  
HUTCHINSON     CLEAR     76  67  73 E9        29.92R                  
MEDICINE LODGE   N/A     79  67  66 E6        29.92R                  
NEWTON         CLEAR     74  67  78 SE6       29.95R                  
PARSONS        MOCLDY    73  70  90 CALM      29.92R                  
WICHITA INTL   CLEAR     78  67  68 SE8       29.92R                  
WICHITA JABRA  CLEAR     73  67  81 SE6       29.93R                  
WICHITA MCCONL CLEAR     77  66  69 SE5       29.93R                  
WINFIELD       CLEAR     76  68  76 E6        29.93R                  
$$

KSZ007>012-019>026-033>040-048>060-102>105-160500-
NORTHEAST KANSAS
  
CITY           SKY/WX    TMP DP  RH WIND       PRES   REMARKS
CONCORDIA      CLEAR     76  70  82 SE8       29.92R                  
EMPORIA        CLEAR     72  69  90 CALM      29.92S                  
LAWRENCE       CLEAR     72  67  84 CALM      29.92R                  
MANHATTAN      CLEAR     74  70  87 CALM      29.92R                  
OLATHE IND     CLEAR     73  67  81 E3        29.94R                  
OLATHE EXE     CLEAR     73  68  84 E3        29.93R                  
SALINA         CLEAR     78  68  71 SE8       29.92R                  
TOPEKA BILLARD CLEAR     75  70  84 CALM      29.92R                  
TOPEKA FORBES  CLEAR     73  68  84 CALM      29.92R                  
$$